Flag for Australia Weather past 2 weeks in Townsville, Queensland, Australia

Now
82 °F

Clear.


Feels Like: 88 °F
Forecast: 78 / 87 °F
Wind: 10 mph from Northeast

Location: Townsville Amo

Current Time: Dec 28, 2014 at 3:28:26 AM

Latest Report: Dec 28, 2014 at 3:00 AM


Visibility: N/A

Pressure: 29.80 "Hg

Humidity: 74%

Dew point: 73 °F

Location of TownsvilleLocation

Historic Weather in Townsville — Graph

°F

Townsville temperature yesterday

Maximum temperature yesterday: 90 °F (at 10:30 AM)
Minimum temperature yesterday: 77 °F (at 6:00 AM)
Average temperature yesterday: 84 °F

Past Weeks' High & Low Weather Summary

 TemperatureHumidityPressure
High95 °F (Dec 13, 2:00 PM)100% (Dec 15, 2:00 AM)29.92 "Hg (Dec 15, 2:00 AM)
Low73 °F (Dec 14, 3:00 AM)38% (Dec 17, 2:00 PM)29.53 "Hg (Dec 13, 3:00 PM)
Average83 °F67%29.80 "Hg
* Reported Dec 13 2:00 AM — Dec 28 2:00 AM, Townsville, Weather by CustomWeather, © 2014

Note: Actual official high and low records may vary slightly from our data, if they occured in-between our weather recording intervals... More about our weather records

Advertising

Townsville weather history for previous 24 hours

 ConditionsComfort  
Time TempWeatherWind HumidityBarometerVisibility
2:00 AM
Dec 28
82 °FPassing clouds.12 mph74%29.80 "HgN/A
1:00 AM82 °FPassing clouds.16 mph74%29.80 "HgN/A
12:00 AM82 °FPartly cloudy.15 mph74%29.83 "HgN/A
11:30 PM
Dec 27
82 °FPartly cloudy.15 mph74%29.83 "HgN/A
11:00 PM82 °FPassing clouds.14 mph74%29.83 "HgN/A
10:30 PM82 °FPassing clouds.13 mph74%29.83 "HgN/A
10:00 PM82 °FPassing clouds.14 mph74%29.83 "HgN/A
9:00 PM82 °FPassing clouds.13 mph74%29.83 "HgN/A
8:30 PM82 °FPassing clouds.12 mph74%29.83 "HgN/A
8:00 PM82 °FPassing clouds.13 mph74%29.83 "HgN/A
7:30 PM82 °FPassing clouds.13 mph74%29.80 "HgN/A
7:00 PM82 °FPassing clouds.15 mph74%29.80 "HgN/A
6:30 PM84 °FScattered clouds.14 mph70%29.80 "HgN/A
6:00 PM84 °FPassing clouds.15 mph70%29.80 "HgN/A
5:30 PM86 °FScattered clouds.15 mph62%29.77 "HgN/A
5:00 PM86 °FScattered clouds.17 mph66%29.77 "HgN/A
4:30 PM86 °FScattered clouds.17 mph66%29.77 "HgN/A
4:00 PM88 °FScattered clouds.20 mph62%29.77 "HgN/A
3:30 PM88 °FPassing clouds.18 mph62%29.77 "HgN/A
3:00 PM90 °FPassing clouds.18 mph59%29.77 "HgN/A
2:30 PM90 °FPassing clouds.20 mph55%29.77 "HgN/A
2:00 PM88 °FPassing clouds.18 mph62%29.77 "HgN/A
1:30 PM88 °FPassing clouds.17 mph62%29.80 "HgN/A
1:00 PM90 °FPassing clouds.17 mph59%29.80 "HgN/A
12:30 PM90 °FPassing clouds.18 mph59%29.80 "HgN/A
12:00 PM88 °FPassing clouds.18 mph59%29.80 "HgN/A
11:30 AM88 °FPassing clouds.18 mph62%29.80 "HgN/A
11:00 AM88 °FPassing clouds.16 mph62%29.83 "HgN/A
10:30 AM90 °FPassing clouds.16 mph59%29.83 "HgN/A
10:00 AM88 °FPassing clouds.15 mph62%29.83 "HgN/A
9:30 AM88 °FPassing clouds.15 mph59%29.83 "HgN/A
9:00 AM86 °FPassing clouds.15 mph66%29.83 "HgN/A
8:30 AM84 °FPassing clouds.12 mph70%29.83 "HgN/A
8:00 AM84 °FPassing clouds.12 mph70%29.83 "HgN/A
7:00 AM81 °FScattered showers. Scattered clouds.7 mph84%29.83 "HgN/A
6:30 AM81 °FScattered showers. Scattered clouds.6 mph84%29.80 "HgN/A
6:00 AM77 °FSprinkles. Broken clouds.17 mph83%29.80 "HgN/A
5:30 AM79 °FPartly cloudy.6 mph84%29.80 "HgN/A
5:00 AM81 °FPassing clouds.6 mph79%29.77 "HgN/A
4:30 AM81 °FClear.6 mph74%29.77 "HgN/A
4:00 AM81 °FPassing clouds.10 mph74%29.77 "HgN/A
3:30 AM81 °FPassing clouds.10 mph74%29.77 "HgN/A
3:00 AM81 °FPassing clouds.9 mph79%29.77 "HgN/A
Weather by CustomWeather, © 2014

See weather overviewHow to use our weather pages